Home   Weather   Canberra   Past weeks

Flag for Australia Past Weather in Canberra, Australian Capital Territory, Australia — Yesterday and Last 2 Weeks

Now
95 °F

Sunny.


Feels Like: 93 °F
Forecast: 64 / 94 °F
Wind: 12 mph from West

Location: Canberra Airport

Current Time: Jan 17, 2017 at 6:17:09 pm

Latest Report: Jan 17, 2017 at 5:30 pm


Visibility: 10 mi

Pressure: 29.83 "Hg (27.98 "Hg at 577m altitude)

Humidity: 26%

Dew Point: 55 °F

Location of CanberraLocation

Past Weather in Canberra — Graph

°F

Canberra Temperature Yesterday

Maximum temperature yesterday: 95 °F (at 4:30 pm)
Minimum temperature yesterday: 63 °F (at 3:30 am)
Average temperature yesterday: 76 °F

High & Low Weather Summary for the Past Weeks

 TemperatureHumidityPressure
High102 °F (Jan 13, 3:00 pm)100% (Jan 6, 1:00 am)30.21 "Hg (Jan 6, 1:00 am)
Low52 °F (Jan 15, 5:30 am)9% (Jan 16, 4:00 pm)29.53 "Hg (Jan 13, 3:40 pm)
Average73 °F60%29.95 "Hg
* Reported Jan 2 5:00 pm — Jan 17 5:00 pm, Canberra, Weather by CustomWeather, © 2017

Note: Actual official high and low records may vary slightly from our data, if they occured in-between our weather recording intervals... More about our weather records

Advertising

Canberra Weather History for the Previous 24 Hours

Scroll right to see more
 ConditionsComfort  
Time TempWeatherWind HumidityBarometerVisibility
5:00 pm
Tue, Jan 17
97 °FSunny.13 mph25%29.83 "Hg10 mi
4:30 pm99 °FSunny.18 mph24%29.83 "Hg10 mi
4:00 pm99 °FSunny.13 mph24%29.83 "Hg10 mi
3:30 pm102 °FSunny.13 mph20%29.83 "Hg10 mi
3:00 pm99 °FPassing clouds.17 mph22%29.86 "HgN/A
2:30 pm99 °FSunny.17 mph21%29.86 "Hg10 mi
2:02 pm99 °FSunny.17 mph19%29.89 "Hg10 mi
1:30 pm99 °FSunny.20 mph18%29.89 "Hg10 mi
1:01 pm97 °FSunny.22 mph19%29.92 "Hg10 mi
12:30 pm95 °FSunny.21 mph20%29.92 "Hg10 mi
12:00 pm95 °FSunny.16 mph20%29.95 "Hg10 mi
11:30 am91 °FSunny.15 mph24%29.95 "Hg10 mi
11:00 am90 °FSunny.17 mph26%29.98 "Hg10 mi
10:30 am86 °FSunny.10 mph35%29.98 "Hg10 mi
10:00 am84 °FPassing clouds.8 mph37%29.98 "HgN/A
9:30 am79 °FPassing clouds.5 mph51%29.98 "HgN/A
9:00 am73 °FSunny.2 mph61%29.98 "Hg10 mi
8:30 am70 °FSunny.1 mph64%30.01 "Hg10 mi
8:00 am66 °FSunny.6 mph73%30.01 "Hg10 mi
7:30 am64 °FSunny.5 mph78%30.01 "Hg10 mi
7:00 am61 °FSunny.5 mph83%29.98 "Hg10 mi
6:30 am57 °FSunny.5 mph88%29.98 "Hg10 mi
6:00 am57 °FClear.No wind88%29.98 "Hg10 mi
5:30 am57 °FClear.1 mph94%29.98 "Hg10 mi
5:00 am57 °FClear.5 mph88%29.98 "Hg10 mi
4:30 am59 °FClear.5 mph88%29.98 "Hg10 mi
4:00 am55 °FClear.2 mph88%29.98 "HgN/A
3:30 am61 °FClear.1 mph83%29.95 "HgN/A
3:00 am61 °FClear.1 mph83%29.98 "HgN/A
2:00 am63 °FClear.No wind77%29.98 "HgN/A
1:30 am64 °FClear.5 mph78%29.98 "HgN/A
1:00 am64 °FClear.6 mph73%29.98 "HgN/A
12:30 am66 °FClear.6 mph73%30.01 "HgN/A
12:00 am68 °FClear.6 mph69%30.01 "HgN/A
11:30 pm
Mon, Jan 16
70 °FClear.6 mph69%30.01 "HgN/A
11:00 pm73 °FClear.5 mph61%30.01 "HgN/A
10:30 pm75 °FClear.5 mph57%30.01 "HgN/A
10:00 pm77 °FClear.9 mph54%29.98 "HgN/A
9:30 pm73 °FClear.10 mph36%29.98 "HgN/A
9:00 pm81 °FClear.7 mph26%29.98 "HgN/A
8:30 pm84 °FClear.9 mph23%29.95 "Hg10 mi
8:00 pm86 °FSunny.10 mph19%29.95 "Hg10 mi
7:30 pm90 °FSunny.15 mph16%29.92 "Hg10 mi
7:00 pm91 °FSunny.10 mph12%29.92 "Hg10 mi
6:30 pm93 °FSunny.14 mph10%29.92 "Hg10 mi
6:00 pm93 °FSunny.13 mph10%29.92 "Hg10 mi
Weather by CustomWeather, © 2017

See weather overviewHow to use our weather pages